SCP
0 0 0 -0 -0 -0 0 0 0 0 0 0 0 0 0 0 0 0 0 0 0 0 0 0 0 0 0 0 0 0 0 0 0 0 0 0 0 0 0 0 0 0 0 0
0 0 0 0 0 0 0 0 0 0 0 0 0 0 0 0 0 0 0 0 0 0 0 0 0 0 0 0 0 0 0 0 0 0 0 0 0 0 0 0 0 0 0 0
0 0 0 0 0 0 0 0 0 0 0 0 0 0 0 0 0 0 0 0 0 0 0 0 0 0 0 0 0 0 0 0 0 0 0 0 0 0 0 0 0 0 0 0
0 0 0 0 0 0 0 0 0 0 0 0 0 0 0 0 0 0 0 0 0 0 0 0 0 0 0 0 0 0 0 0 0 0 0 0 0 0 0 0 0 0 0 0
0 0 0 0 0 0 0 0 0 0 0 0 0 0 0 0 0 0 0 0 0 0 0 0 0 0 0 0 0 0 0 0 0 0 0 0 0 0 0 0 0 0 0 0
0 0 0 0 0 0 0 0 0 0 0 0 0 0 0 0 0 0 0 0 0 0 0 0 0 0 0 0 0 0 -0 -0 -0 -0 -0 0 0 0 0 0 0 0 0 0
0 0 0 0 0 0 0 0 0 0 0 0 0 0 0 0 0 0 0 0 0 0 0 0 0 0 0 0 0 0 0 0 -0 -0 0 -0 -0 0 0 0 0 0 0 0
0 0 0 0 0 0 0 0 0 0 0 0 0 0 0 0 0 0 0 0 0 0 0 0 0 0 0 0 0 0 0 0 0 0 0 0 0 0 0 0 0 0 0 0
0 0 0 0 0 0 0 0 0 0 0 0 0 0 0 0 0 0 0 0 0 0 0 0 0 0 0 0 0 0 0 0 0 0 0 0 0 0 0 0 0 0 0 0
0 0 0 0 0 0 0 0 0 0 0 0 0 0 0 0 0 0 0 0 0 0 0 0 0 0 0 0 0 0 0 0 0 0 0 0 0 0 0 0 0 0 0 0
0 0 0 0 0 0 0 0 0 0 0 0 0 0 0 0 0 0 0 0 0 0 0 0 0 0 0 0 0 0 0 0 0 0 -0 0 0 0 0 0 0 0 0 0
0 0 0 0 0 0 0 0 0 0 0 0 0 0 0 0 0 0 0 0 0 0 0 0 0 0 0 0 0 0 0 0 0 -0 -0 0 0 0 0 0 0 0 0 0
0 0 0 0 0 0 0 0 0 0 0 0 0 0 0 0 0 0 0 0 0 0 0 0 0 0 0 0 0 0 0 0 0 -0 -0 -0 0 0 0 0 0 0 0 0
0 0 0 0 0 0 0 0 0 0 0 0 0 0 0 0 0 0 0 0 0 0 0 0 0 0 0 0 0 0 0 0 0 0 -0 -0 -0 -0 0 0 0 0 0 0
0 0 0 0 0 0 0 0 0 0 0 0 0 0 0 0 0 0 0 0 0 0 0 0 0 0 0 0 0 0 0 0 0 0 0 0 -0 -0 0 0 0 0 0 0
0 0 0 0 0 0 0 0 0 0 0 0 0 0 0 0 0 0 0 0 0 0 0 0 0 0 0 0 0 0 0 0 0 0 0 0 0 0 0 0 0 0 0 0
0 0 0 0 0 0 0 0 0 0 0 0 0 0 0 0 0 0 0 0 0 0 0 0 0 0 0 0 0 0 0 0 0 0 0 0 0 0 0 0 0 0 0 0
0 0 0 0 0 0 0 0 0 0 0 0 0 0 0 0 0 0 0 0 0 0 0 0 0 0 0 0 0 0 0 0 0 0 0 0 0 0 0 0 0 0 0 0
0 0 0 0 0 0 0 0 0 0 0 0 0 0 0 0 0 0 0 0 0 0 0 0 0 0 0 0 0 0 0 0 0 0 0 0 0 0 0 0 0 0 0 0
0 0 0 0 0 0 0 0 0 0 0 0 0 0 0 0 0 0 0 0 0 0 0 0 0 0 0 0 0 0 0 0 0 0 0 0 0 0 0 0 0 0 0 0
0 0 0 0 0 0 0 0 0 0 0 0 0 0 0 0 0 0 0 0 0 0 0 0 0 0 0 0 0 0 0 0 0 0 0 0 0 0 0 0 0 0 0 0
0 0 0 0 0 0 0 0 0 0 0 0 0 0 0 0 0 0 0 0 0 0 0 0 0 0 0 0 0 0 0 0 0 0 0 0 0 0 0 0 0 0 0 0
0 0 0 0 0 0 0 0 0 0 0 0 0 0 0 0 0 0 0 0 0 0 0 0 0 0 0 0 0 0 -0 -0 0 0 0 0 0 0 0 0 0 0 0 0
-0 0 0 0 0 0 0 0 -0 -0 -0 0 0 0 0 0 0 0 0 0 0 0 0 0 0 0 0 0 0 -0 -0 -0 0 0 0 0 0 0 0 0 0 0 0 0
-0 0 0 0 0 0 0 0 -0 -0 -0 0 0 0 0 0 0 0 0 0 0 0 0 0 0 0 0 0 0 -0 -0 -0 0 0 0 0 0 0 0 -0 0 0 0 0
-0 0 0 0 0 0 0 0 -0 -0 -0 0 0 0 0 0 0 0 0 0 0 0 0 0 0 0 0 0 0 0 0 0 0 0 0 0 0 0 0 0 0 0 0 0
Wind_Speed
2 4 2 4 5 4 4 3 2 1 2 5 6 7 7 7 6 6 6 5 5 4 4 5 6 6 6 6 6 7 6 6 5 3 2 1 2 2 2 2 3 4 3 3
5 1 5 3 4 3 3 3 2 2 3 5 7 5 4 5 5 7 8 7 6 5 4 4 5 5 6 6 6 6 6 6 5 3 1 1 1 2 2 3 4 5 4 4
3 5 2 3 3 3 2 4 5 5 5 6 7 3 2 2 3 5 6 6 6 6 6 4 5 5 5 6 6 5 6 6 6 5 3 2 2 2 3 4 4 5 5 4
2 4 1 2 2 4 2 3 7 7 6 2 2 3 4 4 4 6 7 7 7 6 6 5 5 5 5 5 5 5 6 7 7 6 5 5 4 3 3 3 3 4 5 5
2 1 1 1 2 5 3 4 5 5 6 4 3 3 4 3 6 8 8 8 8 7 7 5 5 5 5 5 5 5 6 7 7 7 7 6 5 3 3 3 4 4 4 5
3 2 1 1 1 4 6 7 7 6 5 3 1 2 4 5 7 6 8 9 9 9 8 6 5 5 5 5 5 5 7 7 7 7 7 7 7 6 5 5 4 4 4 4
5 4 4 1 3 4 5 6 4 4 4 2 1 2 6 4 3 6 9 10 10 9 8 7 6 5 4 5 5 5 7 7 7 7 7 7 6 6 6 5 4 4 4 4
2 4 4 3 2 2 2 6 7 5 4 3 1 3 5 1 1 3 7 10 10 9 8 7 6 5 4 4 4 5 5 6 6 7 6 6 6 4 4 4 4 4 3 3
3 2 3 2 2 4 4 3 4 7 3 1 3 4 3 2 4 6 9 10 10 9 8 7 6 5 4 4 3 4 5 5 5 5 5 5 5 5 4 4 4 3 4 4
4 2 2 3 5 6 4 7 5 5 5 1 2 3 4 4 5 7 9 10 9 9 8 7 5 4 4 3 3 4 4 4 4 4 4 4 4 4 4 4 5 5 5 5
3 3 3 4 3 1 2 4 5 4 4 5 2 6 3 6 8 10 10 10 11 10 9 7 6 4 4 3 4 4 4 4 4 4 4 5 5 5 5 5 5 5 5 6
2 5 1 2 3 1 2 3 5 4 2 3 3 6 3 2 5 7 9 8 9 9 8 7 7 5 4 3 3 3 3 3 3 3 4 4 4 5 5 5 5 5 5 6
4 6 3 4 5 5 4 2 2 5 4 3 3 4 3 4 5 6 8 9 9 9 9 7 6 5 4 3 3 3 3 3 3 3 4 4 5 5 5 5 5 5 5 6
5 5 5 5 4 1 1 2 2 4 3 3 4 3 1 3 4 5 6 8 9 9 9 8 6 4 4 3 3 3 3 2 3 3 4 4 4 4 4 4 5 5 5 6
5 4 2 1 1 2 3 3 2 2 3 4 3 2 2 4 5 6 7 9 9 9 9 8 6 5 4 3 3 2 2 2 2 3 4 3 3 4 4 4 5 5 6 6
4 4 3 3 3 5 6 7 4 3 2 1 1 1 1 3 5 6 8 10 10 9 9 8 7 6 5 4 3 3 2 2 2 3 3 3 4 4 5 5 5 6 6 6
3 3 3 0 2 3 4 4 3 3 3 1 1 0 2 4 5 6 7 8 8 8 9 8 7 6 4 4 3 3 2 2 3 3 3 3 4 4 4 5 6 6 5 6
4 4 3 2 3 2 1 1 2 2 4 3 2 2 3 3 3 3 4 6 7 7 7 7 6 4 4 3 3 3 3 3 3 3 3 3 3 4 4 5 5 5 4 5
3 5 4 3 2 1 1 2 1 0 2 3 2 4 4 6 5 4 3 4 5 6 6 5 4 4 4 5 4 4 3 3 3 2 2 2 3 3 4 5 5 4 4 5
5 5 5 3 3 1 2 4 2 2 1 1 2 4 3 3 2 1 2 5 5 6 5 5 4 4 5 4 5 5 3 3 2 2 2 2 3 3 3 3 3 3 3 4
5 5 4 3 2 1 3 6 1 1 3 1 2 3 3 2 2 4 5 5 5 6 6 6 5 4 4 4 5 4 3 2 2 3 3 3 3 3 3 3 3 3 3 4
2 2 2 2 2 1 4 3 2 2 1 1 2 2 4 4 5 6 6 6 7 6 5 5 5 4 3 4 5 5 3 2 3 4 4 4 3 3 3 3 3 3 4 5
2 2 3 3 3 3 2 1 1 2 2 1 2 3 6 6 5 5 5 6 6 6 5 4 5 5 3 3 4 4 3 3 4 5 4 4 4 4 3 3 3 3 3 3
1 1 3 2 1 1 2 2 2 1 2 2 4 5 6 6 6 6 6 5 5 4 4 4 5 5 3 2 3 3 4 4 5 5 4 3 4 4 4 3 2 2 2 2
1 1 3 2 0 2 3 2 1 3 4 5 4 4 5 7 6 6 5 5 4 4 4 4 4 4 3 3 3 3 4 5 5 4 3 3 3 3 3 3 3 2 1 0
1 2 3 3 4 3 2 1 2 4 4 5 5 4 4 5 6 6 5 4 4 4 4 4 4 4 3 3 3 3 4 5 5 4 3 2 2 2 2 2 3 6 4 4
Wind_Direction
81 80 181 210 185 168 152 139 133 163 152 109 122 135 157 153 149 154 157 156 150 129 97 78 67 60 55 44 40 36 33 19 15 18 10 12 24 26 39 42 35 31 24 18
47 280 231 191 164 152 154 132 127 69 77 109 117 116 142 160 169 172 172 170 162 141 114 88 73 63 56 46 37 36 32 24 18 14 3 4 58 55 50 37 35 28 25 15
185 243 196 159 161 163 191 173 163 138 85 77 109 94 160 173 160 163 170 169 160 153 137 113 81 65 60 51 40 39 30 29 22 14 22 33 53 52 37 27 21 18 16 15
242 266 183 169 201 161 229 197 147 138 119 124 136 156 223 197 191 187 178 168 156 145 133 122 100 80 67 58 46 40 40 37 28 24 36 44 46 46 33 24 17 13 16 12
285 273 121 159 225 162 160 100 106 114 111 88 39 127 250 177 209 206 184 170 155 146 138 128 108 93 73 59 53 45 45 41 33 34 38 48 51 45 34 29 26 15 15 15
275 289 190 197 77 116 121 80 64 56 72 82 234 152 242 211 210 192 175 164 154 146 137 125 108 90 68 50 47 45 47 39 31 35 40 46 48 43 40 28 17 7 3 6
358 353 348 46 75 44 81 90 54 20 23 245 238 183 245 235 203 188 172 163 155 147 140 134 121 98 78 56 45 44 49 41 31 34 38 42 44 43 41 25 14 8 359 353
58 332 328 354 122 145 124 129 150 175 197 252 322 235 259 333 89 155 152 150 148 145 143 138 128 115 97 77 59 53 54 47 37 37 33 34 37 39 32 22 11 4 352 339
154 266 315 356 54 118 117 105 144 123 119 104 274 280 306 93 103 126 141 148 151 150 146 139 127 115 106 92 70 61 60 52 43 41 38 33 31 34 27 16 13 1 352 349
146 177 311 313 56 38 106 136 97 108 135 203 285 263 241 208 176 158 158 157 151 146 144 135 125 116 104 94 75 62 63 59 48 42 39 39 31 28 24 23 17 9 0 2
108 125 339 28 51 30 70 77 93 102 141 150 219 264 238 208 186 172 169 161 156 152 150 140 132 125 112 93 82 73 62 58 48 41 39 38 29 25 28 27 14 7 6 8
103 108 50 324 309 271 108 126 137 138 185 162 172 261 335 176 159 155 155 150 146 146 143 140 138 129 117 104 92 83 66 58 48 44 45 40 33 30 30 21 11 8 10 9
118 101 71 358 349 6 45 55 112 116 114 147 171 262 32 84 112 133 142 143 143 142 141 140 139 135 130 114 94 84 69 56 45 47 48 41 35 33 27 17 10 10 12 13
103 98 144 181 215 223 12 18 124 119 136 188 217 232 122 119 141 143 144 143 142 146 146 145 144 141 134 123 113 96 77 62 57 55 53 43 32 30 25 18 16 14 15 19
80 101 118 132 151 114 72 28 57 117 172 181 231 201 209 185 172 157 146 142 144 149 151 152 152 148 141 135 124 108 87 63 64 67 58 43 33 35 35 30 23 21 23 24
59 109 94 57 73 87 64 30 35 42 42 54 70 17 27 111 121 138 151 155 158 160 157 155 154 156 161 157 144 122 97 76 78 75 62 51 46 43 39 32 28 28 26 23
59 105 98 100 309 70 36 2 18 38 19 36 59 262 121 125 144 155 161 160 162 163 158 159 161 165 165 156 144 132 121 107 91 81 71 57 57 52 40 37 35 29 24 30
108 92 102 88 71 93 243 33 59 76 39 29 68 98 115 118 101 100 129 143 149 152 153 158 156 149 140 129 122 117 114 110 99 84 75 66 64 57 46 42 35 25 24 31
102 117 100 96 91 82 0 14 0 57 28 20 91 102 94 102 77 56 87 127 141 145 146 147 144 139 135 130 129 118 107 104 95 82 75 72 76 70 57 44 31 22 30 36
50 72 95 97 101 151 288 316 316 130 11 356 126 139 138 114 106 194 137 119 119 119 126 129 125 120 127 130 127 119 112 104 101 95 84 75 77 78 67 52 39 28 41 43
31 36 66 93 104 314 311 312 12 94 272 281 154 156 146 132 170 147 126 114 117 118 120 123 121 121 131 134 129 123 118 114 104 99 90 77 71 70 72 57 45 49 52 51
106 93 81 99 93 279 328 10 75 224 266 104 129 127 118 115 113 117 116 116 117 113 112 116 117 113 117 134 132 127 127 116 98 92 85 74 65 64 72 68 55 49 53 57
94 170 165 158 192 255 304 307 290 179 142 135 135 132 129 124 124 119 117 116 116 117 115 113 121 117 108 122 133 135 135 118 104 93 84 73 63 57 60 71 67 54 49 58
12 103 105 81 14 338 352 1 10 66 123 126 133 138 134 131 130 122 121 119 117 118 119 119 119 119 112 109 119 134 133 123 111 101 90 80 72 60 52 54 56 66 62 64
312 81 82 62 304 28 9 12 68 73 88 99 103 119 136 132 130 130 129 127 127 125 122 127 130 130 127 120 115 125 131 124 113 106 98 84 75 74 66 56 42 47 34 19
268 159 148 204 220 177 233 250 113 110 114 122 114 101 112 130 131 128 131 132 132 132 127 127 130 130 126 122 120 121 129 129 124 115 108 99 93 82 81 81 56 43 48 52